Weather in Chaozhou

China     23°39′25″N   116°37′09″E
temp.,
°C
wind,
m/s
gust,
m/s
humid.,
%
clouds,
%
prec.,
mm/h
press.,
hPa
HPBL,
m
21 january, thu
thu2123:00+14sw01820 0.0 101823
02:00+15w117912 0.0 101823
05:00+14nnw128223 0.0 101723
08:00+16nnw127512 0.0 101769
11:00+23sse11521 0.0 1017582
14:00+26sse21431 0.0 10141097
17:00+23se34544 0.0 1013349
20:00+17se11786 0.0 101432
22 january, fri
fri2223:00+19ssw116876 0.0 101527
02:00+18nw127256 0.0 101430
05:00+17nnw237667 0.0 101343
08:00+18nnw347339 0.0 1015128
11:00+25nnw33441 0.0 1015809
14:00+28nnw12360 0.0 10122067
17:00+21se4562100 0.0 1010370
20:00+18ssw128181 0.0 101336
23 january, sat
sat2323:00+17w118995 0.0 101427
02:00+16wnw119267 0.0 101423
05:00+15n11930 0.0 101423
08:00+17nnw33840 0.0 1016132
11:00+23nnw45520 0.0 1016943
14:00+26nnw34413 0.0 10131858
17:00+20se457025 0.0 1012350
20:00+15s119119 0.0 101540
24 january, sun
sun2423:00+14sw11933 0.0 101723
02:00+13wsw11952 0.0 101723
05:00+14s119347 0.0 1017113
08:00+14sse228973 0.0 1019192
11:00+17sse227598 0.0 1019473
14:00+22sse335469 0.0 10161012
17:00+18sse45660 0.0 1016420
20:00+13s22840 0.0 101848
25 january, mon
mon2523:00+11sw11890 0.0 101923
02:00+10wsw11921 0.0 101922
05:00+10nnw01934 0.0 101922
08:00+11nne00885 0.0 102044
11:00+19se11500 0.0 1020526
14:00+23sse22380 0.0 1016896
17:00+21se45470 0.0 1016402
20:00+13sse22830 0.0 101744